Prince Rupert,

2:25 PM PDT on April 27, 2017 (GMT -0700)
Prince Rupert

Weather History for CYPR - September, 2012

Change the Weather History Date:

Sunday, September 16, 2012

  Actual Average Record
Temperature  
Mean Temperature 48 °F -  
Max Temperature 58 °F 56 °F 64 °F (2006)
Min Temperature 39 °F 47 °F 41 °F (2012)
Degree Days  
Heating Degree Days 16    
Moisture  
Dew Point 46 °F    
Average Humidity 88    
Maximum Humidity 100    
Minimum Humidity 62    
Precipitation  
Precipitation 0.00 in - - ()
Sea Level Pressure  
Sea Level Pressure 30.35 in    
Wind  
Wind Speed 5 mph ()    
Max Wind Speed 10 mph    
Max Gust Speed -    
Visibility 8.7 miles    
Events      
Averages and records for this station are not official NWS values.
T = Trace of Precipitation, MM = Missing Value Source: Averaged Metar Reports

Daily Weather History Graph

Daily Weather History Graph

Search for Another Location

Airport or City:

Trip Planner

Search our weather history database for the weather conditions in past years. The results will help you decide how hot, cold, wet, or windy it might be!

Date:

Astronomy

Sep. 16, 2012 Rise Set
Actual Time 7:17 AM PDT 7:53 PM PDT
Civil Twilight 6:41 AM PDT 8:29 PM PDT
Nautical Twilight 5:58 AM PDT 9:12 PM PDT
Astronomical Twilight 5:12 AM PDT 9:58 PM PDT
Moon 8:21 AM PDT (9/16) 7:41 PM PDT (9/16)
Length of Visible Light 13h 47m
Length of Day
12h 36m
New Moon, 1% of the Moon is Illuminated
Sep 16
New Moon
Sep 22
First Quarter
Sep 29
Full
Oct 8
Last Quarter
Oct 15
New

Hourly Weather History & Observations

Time (PDT) Temp. Windchill Dew Point Humidity Pressure Visibility Wind Dir Wind Speed Gust Speed Precip Events Conditions
12:00 AM 46.4 °F 43.5 °F 44.6 °F 93% 30.38 in 9.0 mi East 5.8 mph - N/A   Clear
1:00 AM 46.4 °F 42.4 °F 44.6 °F 93% 30.38 in 9.0 mi ENE 8.1 mph - N/A   Clear
2:00 AM 44.6 °F - 44.6 °F 100% 30.38 in 9.0 mi Variable 2.3 mph - N/A   Clear
3:00 AM 44.6 °F 40.7 °F 44.6 °F 100% 30.38 in 9.0 mi ENE 6.9 mph - N/A   Clear
4:00 AM 42.8 °F 40.1 °F 42.8 °F 100% 30.38 in 9.0 mi ENE 4.6 mph - N/A   Clear
5:00 AM 44 °F - 43 °F 94% 30.38 in 10 mi ENE 4.6 mph - -  
5:00 AM 42.8 °F 40.1 °F 42.8 °F 100% 30.37 in 9.0 mi ENE 4.6 mph - N/A   Clear
6:53 AM 41.0 °F 39.0 °F 41.0 °F 100% 30.37 in 4.0 mi NE 3.5 mph - N/A   Clear
7:00 AM 41.0 °F 39.0 °F 41.0 °F 100% 30.37 in 4.0 mi NE 3.5 mph - N/A   Clear
7:02 AM 41.0 °F 39.0 °F 41.0 °F 100% 30.37 in 7.0 mi NE 3.5 mph - N/A   Clear
8:00 AM 41.0 °F - 41.0 °F 100% 30.38 in 9.0 mi Variable 2.3 mph - N/A   Clear
9:00 AM 46.4 °F - 46.4 °F 100% 30.38 in 9.0 mi ENE 2.3 mph - N/A   Clear
10:00 AM 50.0 °F - 48.2 °F 94% 30.38 in 9.0 mi Variable 2.3 mph - N/A   Clear
11:00 AM 51 °F - 48 °F 85% 30.38 in 10 mi SW 4.6 mph - -  
11:00 AM 51.8 °F - 48.2 °F 88% 30.37 in 9.0 mi SW 4.6 mph - N/A   Clear
12:00 PM 53.6 °F - 48.2 °F 82% 30.36 in 9.0 mi SSW 4.6 mph - N/A   Clear
1:00 PM 55.4 °F - 48.2 °F 77% 30.36 in 9.0 mi West 4.6 mph - N/A   Clear
2:00 PM 57.2 °F - 48.2 °F 72% 30.36 in 9.0 mi NNW 9.2 mph - N/A   Clear
3:00 PM 57.2 °F - 48.2 °F 72% 30.35 in 9.0 mi NNW 10.4 mph - N/A   Clear
4:00 PM 57.2 °F - 50.0 °F 77% 30.34 in 9.0 mi WNW 5.8 mph - N/A   Clear
5:00 PM 58 °F - 49 °F 62% 30.33 in 10 mi WNW 6.9 mph - -  
5:00 PM 57.2 °F - 48.2 °F 72% 30.33 in 9.0 mi WNW 5.8 mph - N/A   Clear
6:00 PM 57.2 °F - 48.2 °F 72% 30.32 in 9.0 mi WNW 6.9 mph - N/A   Clear
7:00 PM 57.2 °F - 46.4 °F 67% 30.31 in 9.0 mi NNW 8.1 mph - N/A   Clear
8:00 PM 53.6 °F - 46.4 °F 77% 30.31 in 9.0 mi NNW 5.8 mph - N/A   Clear
10:00 PM 48.2 °F - 46.4 °F 93% 30.30 in 9.0 mi Calm Calm - N/A   Clear
11:00 PM 46 °F - 45 °F 93% 30.30 in 10 mi ENE 3.5 mph - -  
11:00 PM 46.4 °F 45.2 °F 44.6 °F 93% 30.29 in 9.0 mi ENE 3.5 mph - N/A   Clear